Regional Weather Roundup
Issued by NWS Mt. Holly, NJ

Home | Current Version | Previous Version | Text Only | Print | Product List | Glossary On
Versions: 1 2 3 4 5 6 7 8 9 10 11 12 13 14 15 16 17 18 19 20 21 22 23 24 25 26 27 28 29 30 31 32 33 34 35 36 37 38 39 40 41 42 43 44 45 46 47 48 49 50
000
ASUS41 KPHI 281810
RWRPHI

REGIONAL WEATHER ROUNDUP
NATIONAL WEATHER SERVICE MOUNT HOLLY NJ
100 PM EST SUN DEC 28 2014

NOTE:  "FAIR" INDICATES FEW OR NO CLOUDS BELOW 12,000 FEET WITH NO
SIGNIFICANT WEATHER AND/OR OBSTRUCTIONS TO VISIBILITY.

 * = STATION DOES NOT REPORT PRECIPITATION (E.G. RAIN, SNOW, ETC.)
        OR FOG.

NJZ015>026-281900-
SOUTHERN NEW JERSEY

CITY           SKY/WX    TMP DP  RH WIND       PRES   REMARKS
POMONA         CLOUDY    54  40  59 W9        29.93F
6HR MIN TEMP:  47; 6HR MAX TEMP:  54; 6HR PCP: TRACE;

RIO GRANDE*    CLOUDY    54  39  58 W9        29.92S
MILLVILLE      CLOUDY    53  42  66 W8        29.93F
WRIGHTSTOWN    LGT RAIN  54  43  66 W5        29.89F
MOUNT HOLLY    CLOUDY    53  41  63 W6        29.92S
TRENTON        CLOUDY    52  41  66 W5        29.90F
6HR MIN TEMP:  42; 6HR MAX TEMP:  52; 6HR PCP: TRACE;


$$
NJZ001>014-281900-
NORTHERN NEW JERSEY

CITY           SKY/WX    TMP DP  RH WIND       PRES   REMARKS
SUSSEX         CLOUDY    50  42  74 MISG      29.89S
ANDOVER*       NOT AVBL
MORRISTOWN     CLOUDY    52  45  76 W7        29.90F
NEWARK         CLOUDY    50  43  77 W9        29.90F
TETERBORO      CLOUDY    48  43  82 W6        29.88F
CALDWELL       CLOUDY    49  43  80 CALM      29.89F
SOMERVILLE     CLOUDY    51  43  74 VRB5      29.88F
ALLAIRE*       CLOUDY    54  39  58 W8        29.90S
TOMS RIVER*    CLOUDY    52  45  76 CALM      29.91F

$$
PAZ043-044-047-054-055-060>062-066>071-281900-
EASTERN PENNSYLVANIA

CITY           SKY/WX    TMP DP  RH WIND       PRES   REMARKS
PHILADELPHIA   CLOUDY    53  41  63 SW7       29.93F
6HR MIN TEMP:  43; 6HR MAX TEMP:  53; 6HR PCP:  0.01;

NORTH PHILA    CLOUDY    55  39  54 W8        29.93S
BLUE BELL      CLOUDY    52  43  71 W3        29.91F
DOYLESTOWN     CLOUDY    49  43  80 SW5       29.90F
QUAKERTOWN*    CLOUDY    52  43  71 W6        29.92F
POTTSTOWN      CLOUDY    50  41  71 CALM      29.92F
LANCASTER      CLOUDY    49  41  74 NW7       29.93F
COATESVILLE    CLOUDY    50  41  71 W7        29.92F
READING        CLOUDY    52  41  66 W8        29.92F
6HR MIN TEMP:  41; 6HR MAX TEMP:  52; 6HR PCP: TRACE;

ALLENTOWN      CLOUDY    51  43  74 SW6       29.90F
6HR MIN TEMP:  42; 6HR MAX TEMP:  51; 6HR PCP: TRACE;

MOUNT POCONO   CLOUDY    42  37  82 NW12      29.88R
6HR MIN TEMP:  41; 6HR MAX TEMP:  45; 6HR PCP:  0.01;

HAZLETON       CLOUDY    45  41  87 W7        29.92F
WILKES BARRE   CLOUDY    46  37  71 NW12G18   29.90F

$$
DEZALL-MDZ008-012-015-019-020-281900-
DELAWARE AND EASTERN MARYLAND

CITY           SKY/WX    TMP DP  RH WIND       PRES   REMARKS
WILMINGTON     CLOUDY    54  42  64 W3        29.93F
6HR MIN TEMP:  42; 6HR MAX TEMP:  55; 6HR PCP:  0.02;

DOVER          CLOUDY    57  44  60 W8        29.92F
GEORGETOWN     CLOUDY    57  41  55 W5        29.95F
6HR MIN TEMP:  50; 6HR MAX TEMP:  57; 6HR PCP: TRACE;

EASTON         MOSUNNY   59  43  55 SW7       29.98F
PATUXENT       CLOUDY    58  39  49 NW6       29.94F
OCEAN CITY     CLOUDY    58  43  57 W12G18    29.95S
WALLOPS ISLAND PTSUNNY   60  48  64 NW12G17   29.96F
CAMBRIDGE      CLOUDY    59  41  51 SW3       29.94F
SALISBURY      CLOUDY    60  42  51 W7        29.95F

$$
PAZ001-021-NYZ056-072-MDZ011-DCZ001-281900-
OTHER NEARBY LOCATIONS

CITY           SKY/WX    TMP DP  RH WIND       PRES   REMARKS
HARRISBURG     CLOUDY    45  41  86 CALM      29.92F
STATE COLLEGE  CLOUDY    43  36  75 W9        29.94F
WILLIAMSPORT   CLOUDY    47  37  68 W6        29.92F
BINGHAMTON     CLOUDY    39  35  86 NW7       29.91R WCI  34
NEW YORK CITY  CLOUDY    50  41  71 MISG      29.91F
BALTIMORE      CLOUDY    58  42  55 NW10      29.93F
WASHINGTON DC  CLOUDY    57  40  52 S6        29.95F

$$



USA.gov is the U.S. government's official web portal to all federal, state and local government web resources and services.